Lid_Strength_Index
-1 -0 0 3 11 12 14 13 9 9 9 6 5 7 8 7 9 13 2 1 0 0 -0 -1 -1 -2 -2 -2 -2 -2 -1 -1 -2 -2 -2 -1 -1 -2 -2 -2 -2 -2 -2 -2 -2 -2 -2 -1 -1
-0 1 2 6 13 16 15 10 11 9 7 6 6 6 7 9 5 4 3 1 0 -0 -0 -0 -1 -2 -2 -2 -2 -2 -2 -1 -2 -2 -2 -2 -2 -2 -1 -2 -1 -2 -2 -2 -2 -2 -1 -1 -1
1 1 7 10 13 16 15 10 9 7 6 6 7 5 6 8 4 4 1 1 0 0 -0 -0 -1 -2 -2 -2 -2 -2 -1 -1 -2 -2 -2 -2 -1 -2 -2 -1 -1 -1 -1 -2 -2 -2 -2 -1 -1
2 4 6 12 14 11 11 8 7 7 6 5 6 8 5 3 3 2 1 0 0 0 -0 -1 -2 -2 -2 -2 -2 -1 -1 -1 -2 -2 -2 -1 -1 -1 -2 -2 -2 -1 -2 -1 -1 -1 -2 -2 -1
2 6 12 13 13 10 8 7 7 8 7 7 6 9 7 3 1 1 1 0 1 0 -0 -0 -2 -2 -2 -2 -2 -2 -1 -1 -2 -2 -2 -1 -1 -1 -1 -2 -2 -1 -1 -1 -1 -1 -2 -2 -2
7 7 13 15 13 9 8 6 6 7 7 7 7 8 7 2 2 2 1 1 0 0 -0 -0 -1 -2 -2 -2 -2 -1 -1 -1 -2 -2 -1 -1 -1 -1 -2 -1 -2 -2 -1 -1 -1 -1 -2 -2 -2
8 10 13 13 13 11 9 6 7 7 7 8 5 9 6 4 2 2 1 0 0 0 -0 -0 -0 -1 -2 -2 -1 -1 -2 -1 -1 -1 -1 -1 -1 -1 -1 -2 -2 -1 -2 -1 -1 -1 -2 -2 -1
6 8 12 11 11 11 7 6 5 6 7 4 4 9 8 4 2 1 1 1 1 0 0 0 0 0 0 -0 -1 -1 -1 -1 -1 -1 -1 -1 -1 -1 -1 -2 -2 -2 -1 -1 -1 -1 -2 -2 -2
4 11 14 11 11 10 6 7 5 4 6 5 5 5 4 2 1 2 2 2 1 1 0 0 0 0 0 0 -1 -1 -1 -1 -1 -1 -1 -1 -0 -0 -1 -1 -2 -2 -1 -1 -1 -2 -2 -2 -1
8 11 11 7 7 8 6 7 6 7 7 7 6 4 3 2 3 3 3 3 3 2 1 0 0 0 0 -0 0 0 -0 -0 -0 -0 0 -0 0 -0 -1 -2 -2 -2 -2 -2 -2 -2 -2 -2 -1
7 10 8 7 6 6 7 7 5 7 9 7 7 6 4 3 3 3 3 3 3 2 1 1 0 0 0 0 -0 -0 0 0 -0 3 -1 1 -1 -0 2 -0 -0 -0 -1 -0 -1 -1 -1 -0 -0
9 6 6 6 6 7 7 6 7 6 7 5 5 4 4 4 4 3 3 3 2 2 1 1 1 0 0 -0 -0 0 0 0 0 2 1 1 -0 -0 -0 0 1 -0 -0 -0 -0 0 -0 0 0
7 7 6 5 5 6 6 7 7 7 5 4 4 4 4 4 4 3 2 2 2 2 1 1 0 0 0 0 0 0 0 -0 -0 0 1 0 -0 0 -0 0 1 0 -1 -0 0 0 -0 0 0
6 6 6 6 6 6 8 7 6 6 5 5 5 5 4 4 3 3 3 3 2 2 1 1 0 0 0 0 0 0 0 0 -0 -0 -0 -0 -0 -0 -0 0 -0 0 0 0 0 0 0 0 -0
5 8 6 7 7 8 6 9 9 6 5 6 5 5 4 4 3 3 3 3 2 1 1 1 1 0 0 0 0 0 0 0 1 0 0 0 0 0 0 0 -0 -0 -0 -0 0 1 0 0 0
8 8 10 7 7 6 7 12 8 6 6 6 6 5 5 4 4 3 2 2 1 2 1 1 0 0 0 0 0 0 0 1 0 0 -0 0 0 0 0 1 1 0 -0 0 0 1 1 1 1
9 12 11 9 6 6 8 11 8 5 6 7 6 5 5 5 4 3 2 2 2 2 1 1 1 1 1 0 0 0 1 0 0 0 0 0 -0 -0 0 1 0 0 0 0 0 1 1 2 1
12 12 10 10 7 7 9 10 8 7 7 7 7 6 5 5 4 3 2 2 1 1 1 1 1 1 0 0 0 0 0 0 1 1 0 -0 -0 -0 0 0 1 1 0 1 1 1 1 1 1
9 10 10 8 7 7 9 10 9 8 7 8 7 7 6 5 4 3 2 2 2 1 1 1 1 1 1 1 1 1 2 1 1 0 0 -0 -0 -0 0 0 0 0 1 1 1 1 2 2 2
8 10 10 8 7 8 8 10 9 8 8 7 7 7 6 5 4 3 3 2 2 2 2 2 1 1 1 1 1 1 1 1 1 0 0 0 0 -0 0 0 1 0 1 1 1 1 2 2 1
9 10 10 10 8 8 9 11 10 8 7 7 7 6 6 5 5 4 3 3 2 2 2 2 1 1 1 1 1 1 1 1 1 1 1 0 0 -0 0 0 0 0 1 1 1 1 2 3 2
11 7 8 9 10 12 8 15 12 10 9 8 7 7 6 5 4 4 3 3 3 2 2 1 1 1 1 1 1 2 2 3 2 1 1 0 0 0 -0 0 0 0 1 1 1 0 1 2 3
9 7 8 8 10 11 10 12 12 10 11 10 8 7 6 5 4 4 3 3 2 2 2 2 1 1 1 1 1 1 2 2 2 1 1 1 0 0 -0 0 0 0 1 1 0 1 2 1 2
6 8 9 9 10 14 11 12 12 12 11 10 7 6 6 5 4 3 3 3 2 2 2 2 2 2 1 1 1 1 2 2 2 2 2 1 1 0 0 0 0 0 0 0 0 1 1 1 1
8 10 14 15 15 15 12 13 12 8 7 8 8 7 6 5 4 4 4 3 3 3 2 2 2 2 1 1 1 1 1 2 2 2 2 2 1 1 1 0 0 0 1 0 0 0 1 1 1
9 10 14 18 17 15 13 14 11 7 7 5 5 5 5 5 4 4 4 3 3 3 2 2 2 2 2 2 1 1 1 1 1 1 1 1 1 1 0 0 0 0 0 0 0 0 1 1 1
10 11 10 14 12 15 14 12 9 8 8 7 6 5 5 5 4 4 3 3 3 3 2 2 2 2 2 2 1 1 1 1 1 1 1 1 1 1 0 0 0 0 0 0 0 1 1 1 1
9 8 12 12 16 17 13 12 11 10 9 9 8 6 5 5 4 4 4 3 3 2 2 2 2 2 2 1 1 1 1 1 1 1 1 1 1 1 1 1 0 0 0 0 0 1 1 1 1
10 11 10 12 13 16 16 13 8 9 8 9 8 6 5 5 5 4 4 3 3 2 2 2 2 2 2 2 1 1 1 1 1 1 1 1 1 1 1 1 1 1 1 0 1 1 1 1 1
8 10 10 12 14 14 14 13 7 8 6 6 7 6 5 4 4 4 3 3 3 3 2 2 2 2 2 2 1 2 1 1 1 1 1 2 1 1 1 1 1 1 1 1 1 1 1 2 2